Time,TemperatureF,DewpointF,PressureIn,WindDirection,WindDirectionDegrees,WindSpeedMPH,WindSpeedGustMPH,Humidity,HourlyPrecipIn,Conditions,Clouds,dailyrainin,SoftwareType,DateUTC
2013-03-08 00:02:00,44.0,-99.9,-100.00,WNW,295,7.0,-999.0,-999,-99.99,,,-99.99,,2013-03-08 08:02:00,
2013-03-08 00:11:00,44.0,-99.9,-100.00,WNW,295,7.0,-999.0,-999,-99.99,,,-99.99,,2013-03-08 08:11:00,
2013-03-08 00:20:00,44.0,-99.9,-100.00,WNW,288,5.0,-999.0,-999,-99.99,,,-99.99,,2013-03-08 08:20:00,
2013-03-08 01:03:00,44.0,-99.9,-100.00,WNW,288,5.0,-999.0,-999,-99.99,,,-99.99,,2013-03-08 09:03:00,
2013-03-08 01:11:00,44.0,-99.9,-100.00,WNW,288,5.0,-999.0,-999,-99.99,,,-99.99,,2013-03-08 09:11:00,
2013-03-08 01:20:00,44.0,-99.9,-100.00,NW,326,6.0,-999.0,-999,-99.99,,,-99.99,,2013-03-08 09:20:00,
2013-03-08 02:01:00,44.0,-99.9,-100.00,NW,326,6.0,-999.0,-999,-99.99,,,-99.99,,2013-03-08 10:01:00,
2013-03-08 02:11:00,44.0,-99.9,-100.00,NW,326,6.0,-999.0,-999,-99.99,,,-99.99,,2013-03-08 10:11:00,
2013-03-08 02:20:00,44.0,-99.9,-100.00,WNW,299,10.0,-999.0,-999,-99.99,,,-99.99,,2013-03-08 10:20:00,
2013-03-08 03:01:00,44.0,-99.9,-100.00,WNW,299,10.0,-999.0,-999,-99.99,,,-99.99,,2013-03-08 11:01:00,
2013-03-08 03:11:00,44.0,-99.9,-100.00,WNW,299,10.0,-999.0,-999,-99.99,,,-99.99,,2013-03-08 11:11:00,
2013-03-08 03:20:00,44.0,-99.9,-100.00,NW,323,5.0,-999.0,-999,-99.99,,,-99.99,,2013-03-08 11:20:00,
2013-03-08 04:02:00,44.0,-99.9,-100.00,NW,323,5.0,-999.0,-999,-99.99,,,-99.99,,2013-03-08 12:02:00,
2013-03-08 04:12:00,44.0,-99.9,-100.00,NW,323,5.0,-999.0,-999,-99.99,,,-99.99,,2013-03-08 12:12:00,
2013-03-08 04:20:00,43.0,-99.9,-100.00,NE,38,6.0,-999.0,-999,-99.99,,,-99.99,,2013-03-08 12:20:00,
2013-03-08 05:02:00,43.0,-99.9,-100.00,NE,38,6.0,-999.0,-999,-99.99,,,-99.99,,2013-03-08 13:02:00,
2013-03-08 05:12:00,43.0,-99.9,-100.00,NE,38,6.0,-999.0,-999,-99.99,,,-99.99,,2013-03-08 13:12:00,
2013-03-08 05:20:00,43.0,-99.9,-100.00,North,5,2.0,-999.0,-999,-99.99,,,-99.99,,2013-03-08 13:20:00,
2013-03-08 06:03:00,43.0,-99.9,-100.00,North,5,2.0,-999.0,-999,-99.99,,,-99.99,,2013-03-08 14:03:00,
2013-03-08 06:12:00,43.0,-99.9,-100.00,North,5,2.0,-999.0,-999,-99.99,,,-99.99,,2013-03-08 14:12:00,
2013-03-08 06:20:00,43.0,-99.9,-100.00,North,359,5.0,-999.0,-999,-99.99,,,-99.99,,2013-03-08 14:20:00,
2013-03-08 07:03:00,43.0,-99.9,-100.00,North,359,5.0,-999.0,-999,-99.99,,,-99.99,,2013-03-08 15:03:00,
2013-03-08 07:12:00,43.0,-99.9,-100.00,North,359,5.0,-999.0,-999,-99.99,,,-99.99,,2013-03-08 15:12:00,
2013-03-08 07:20:00,43.0,-99.9,-100.00,NNW,343,10.0,-999.0,-999,-99.99,,,-99.99,,2013-03-08 15:20:00,
2013-03-08 08:02:00,43.0,-99.9,-100.00,NNW,343,10.0,-999.0,-999,-99.99,,,-99.99,,2013-03-08 16:02:00,
2013-03-08 08:12:00,43.0,-99.9,-100.00,NNW,343,10.0,-999.0,-999,-99.99,,,-99.99,,2013-03-08 16:12:00,
2013-03-08 08:20:00,44.0,-99.9,-100.00,NNW,345,6.0,-999.0,-999,-99.99,,,-99.99,,2013-03-08 16:20:00,
2013-03-08 09:03:00,44.0,-99.9,-100.00,NNW,345,6.0,-999.0,-999,-99.99,,,-99.99,,2013-03-08 17:03:00,
2013-03-08 09:12:00,44.0,-99.9,-100.00,NNW,345,6.0,-999.0,-999,-99.99,,,-99.99,,2013-03-08 17:12:00,
2013-03-08 09:20:00,43.0,-99.9,-100.00,NNW,338,6.0,-999.0,-999,-99.99,,,-99.99,,2013-03-08 17:20:00,
2013-03-08 10:02:00,43.0,-99.9,-100.00,NNW,338,6.0,-999.0,-999,-99.99,,,-99.99,,2013-03-08 18:02:00,
2013-03-08 10:12:00,43.0,-99.9,-100.00,NNW,338,6.0,-999.0,-999,-99.99,,,-99.99,,2013-03-08 18:12:00,
2013-03-08 10:20:00,43.0,-99.9,-100.00,North,10,7.0,-999.0,-999,-99.99,,,-99.99,,2013-03-08 18:20:00,
2013-03-08 11:02:00,43.0,-99.9,-100.00,North,10,7.0,-999.0,-999,-99.99,,,-99.99,,2013-03-08 19:02:00,
2013-03-08 11:12:00,43.0,-99.9,-100.00,North,10,7.0,-999.0,-999,-99.99,,,-99.99,,2013-03-08 19:12:00,
2013-03-08 11:20:00,44.0,-99.9,-100.00,North,7,6.0,-999.0,-999,-99.99,,,-99.99,,2013-03-08 19:20:00,
2013-03-08 12:02:00,44.0,-99.9,-100.00,North,7,6.0,-999.0,-999,-99.99,,,-99.99,,2013-03-08 20:02:00,
2013-03-08 12:11:00,44.0,-99.9,-100.00,North,7,6.0,-999.0,-999,-99.99,,,-99.99,,2013-03-08 20:11:00,
2013-03-08 12:20:00,46.0,-99.9,-100.00,NNE,14,7.0,-999.0,-999,-99.99,,,-99.99,,2013-03-08 20:20:00,
2013-03-08 13:02:00,46.0,-99.9,-100.00,NNE,14,7.0,-999.0,-999,-99.99,,,-99.99,,2013-03-08 21:02:00,
2013-03-08 13:12:00,46.0,-99.9,-100.00,NNE,14,7.0,-999.0,-999,-99.99,,,-99.99,,2013-03-08 21:12:00,
2013-03-08 13:20:00,46.0,-99.9,-100.00,NNE,13,5.0,-999.0,-999,-99.99,,,-99.99,,2013-03-08 21:20:00,
2013-03-08 14:02:00,46.0,-99.9,-100.00,NNE,13,5.0,-999.0,-999,-99.99,,,-99.99,,2013-03-08 22:02:00,
2013-03-08 14:12:00,46.0,-99.9,-100.00,NNE,13,5.0,-999.0,-999,-99.99,,,-99.99,,2013-03-08 22:12:00,
2013-03-08 14:20:00,47.0,-99.9,-100.00,North,0,12.0,-999.0,-999,-99.99,,,-99.99,,2013-03-08 22:20:00,
2013-03-08 15:02:00,47.0,-99.9,-100.00,North,0,12.0,-999.0,-999,-99.99,,,-99.99,,2013-03-08 23:02:00,
2013-03-08 15:12:00,47.0,-99.9,-100.00,North,0,12.0,-999.0,-999,-99.99,,,-99.99,,2013-03-08 23:12:00,
2013-03-08 15:20:00,48.0,-99.9,-100.00,North,351,13.0,-999.0,-999,-99.99,,,-99.99,,2013-03-08 23:20:00,
2013-03-08 16:02:00,48.0,-99.9,-100.00,North,351,13.0,-999.0,-999,-99.99,,,-99.99,,2013-03-09 00:02:00,
2013-03-08 16:12:00,48.0,-99.9,-100.00,North,351,13.0,-999.0,-999,-99.99,,,-99.99,,2013-03-09 00:12:00,
2013-03-08 16:20:00,49.0,-99.9,-100.00,North,349,13.0,-999.0,-999,-99.99,,,-99.99,,2013-03-09 00:20:00,
2013-03-08 17:02:00,49.0,-99.9,-100.00,North,349,13.0,-999.0,-999,-99.99,,,-99.99,,2013-03-09 01:02:00,
2013-03-08 17:12:00,49.0,-99.9,-100.00,North,349,13.0,-999.0,-999,-99.99,,,-99.99,,2013-03-09 01:12:00,
2013-03-08 19:20:00,46.0,-99.9,-100.00,NW,305,6.0,-999.0,-999,-99.99,,,-99.99,,2013-03-09 03:20:00,
2013-03-08 20:01:00,46.0,-99.9,-100.00,NW,305,6.0,-999.0,-999,-99.99,,,-99.99,,2013-03-09 04:01:00,
2013-03-08 20:11:00,46.0,-99.9,-100.00,NW,305,6.0,-999.0,-999,-99.99,,,-99.99,,2013-03-09 04:11:00,
2013-03-08 20:20:00,44.0,-99.9,-100.00,West,259,1.0,-999.0,-999,-99.99,,,-99.99,,2013-03-09 04:20:00,
2013-03-08 21:03:00,44.0,-99.9,-100.00,West,259,1.0,-999.0,-999,-99.99,,,-99.99,,2013-03-09 05:03:00,
2013-03-08 21:12:00,44.0,-99.9,-100.00,West,259,1.0,-999.0,-999,-99.99,,,-99.99,,2013-03-09 05:12:00,
2013-03-08 21:20:00,44.0,-99.9,-100.00,WNW,283,2.0,-999.0,-999,-99.99,,,-99.99,,2013-03-09 05:20:00,
2013-03-08 22:02:00,44.0,-99.9,-100.00,WNW,283,2.0,-999.0,-999,-99.99,,,-99.99,,2013-03-09 06:02:00,
2013-03-08 22:11:00,44.0,-99.9,-100.00,WNW,283,2.0,-999.0,-999,-99.99,,,-99.99,,2013-03-09 06:11:00,
2013-03-08 22:20:00,42.0,-99.9,-100.00,SE,144,2.0,-999.0,-999,-99.99,,,-99.99,,2013-03-09 06:20:00,
2013-03-08 23:01:00,42.0,-99.9,-100.00,SE,144,2.0,-999.0,-999,-99.99,,,-99.99,,2013-03-09 07:01:00,
2013-03-08 23:11:00,42.0,-99.9,-100.00,SE,144,2.0,-999.0,-999,-99.99,,,-99.99,,2013-03-09 07:11:00,
2013-03-08 23:20:00,41.0,-99.9,-100.00,SSW,209,1.0,-999.0,-999,-99.99,,,-99.99,,2013-03-09 07:20:00,